When you browse on this site, cookies collect data to enhance your experience and personalize the content and advertising you see.
Visit our Privacy Policy to learn more. By continuing to use the site, you agree to this use of cookies and data.
  • Em Portugal
  • Lista de países
  • Para 7 dias
  • Temperatura da água
  • Mapas de satélite
  • Mapa do tempo
  • Widgets de tempo
  • user-avatar
    Iniciar Sessão

    Previsão horária em Krest

    Hoje, 18 Fevereiro, Segunda-feira

    Tempo Temperatura Precipitação Vento Pressão Humidade
    00:00 -5°C° 0 mm 4 m/s 741 mmHg 82%
    01:00 -6°C° 0 mm 3 m/s 741 mmHg 84%
    02:00 -6°C° 0 mm 3 m/s 742 mmHg 85%
    03:00 -7°C° 0 mm 3 m/s 742 mmHg 87%
    04:00 -7°C° 0 mm 3 m/s 743 mmHg 88%
    05:00 -6°C° 0 mm 2 m/s 743 mmHg 90%
    06:00 -7°C° 0 mm 2 m/s 744 mmHg 90%
    07:00 -7°C° 0 mm 2 m/s 744 mmHg 91%
    08:00 -7°C° 0 mm 2 m/s 745 mmHg 91%
    09:00 -6°C° 0 mm 2 m/s 745 mmHg 87%
    10:00 -5°C° 0 mm 2 m/s 746 mmHg 83%
    11:00 -4°C° 0 mm 2 m/s 746 mmHg 79%
    12:00 -4°C° 0 mm 2 m/s 746 mmHg 76%
    13:00 -1°C° 0 mm 1 m/s 746 mmHg 73%
    14:00 -1°C° 0 mm 1 m/s 746 mmHg 70%
    15:00 -2°C° 0 mm 1 m/s 746 mmHg 74%
    16:00 -3°C° 0 mm 1 m/s 746 mmHg 77%
    17:00 -4°C° 0 mm 1 m/s 746 mmHg 81%
    18:00 -4°C° 0 mm 1 m/s 746 mmHg 82%
    19:00 -4°C° 0 mm 1 m/s 746 mmHg 83%
    20:00 -6°C° 0 mm 2 m/s 746 mmHg 84%
    21:00 -6°C° 0 mm 2 m/s 745 mmHg 84%
    22:00 -6°C° 0 mm 2 m/s 745 mmHg 83%
    23:00 -7°C° 0 mm 3 m/s 745 mmHg 83%

    Amanhã, 19 Fevereiro, Terça-feira

    Tempo Temperatura Precipitação Vento Pressão Humidade
    00:00 -7°C° 0 mm 3 m/s 744 mmHg 81%
    01:00 -6°C° 0 mm 3 m/s 744 mmHg 80%
    02:00 -7°C° 0 mm 4 m/s 744 mmHg 78%
    03:00 -7°C° 0 mm 4 m/s 743 mmHg 77%
    04:00 -7°C° 0 mm 4 m/s 742 mmHg 77%
    05:00 -7°C° 0 mm 4 m/s 742 mmHg 76%
    06:00 -7°C° 0 mm 4 m/s 741 mmHg 78%
    07:00 -5°C° 0 mm 4 m/s 741 mmHg 79%
    08:00 -6°C° 0 mm 5 m/s 741 mmHg 80%
    09:00 -5°C° 0 mm 5 m/s 740 mmHg 79%
    10:00 -4°C° 0 mm 5 m/s 740 mmHg 78%
    11:00 -1°C° 0 mm 5 m/s 739 mmHg 78%
    12:00 -1°C° 0 mm 5 m/s 739 mmHg 78%
    13:00 -1°C° 0 mm 5 m/s 738 mmHg 78%
    14:00 0°C° 0 mm 5 m/s 738 mmHg 79%
    15:00 -1°C° 0 mm 5 m/s 737 mmHg 81%
    16:00 -1°C° 0 mm 5 m/s 736 mmHg 83%
    17:00 -2°C° 0 mm 4 m/s 736 mmHg 85%
    18:00 -2°C° 0 mm 5 m/s 735 mmHg 86%
    19:00 -2°C° 0 mm 5 m/s 735 mmHg 87%
    20:00 -2°C° 0 mm 5 m/s 734 mmHg 88%
    21:00 -2°C° 0 mm 5 m/s 733 mmHg 89%
    22:00 -1°C° 0 mm 5 m/s 733 mmHg 90%
    23:00 -1°C° 0 mm 5 m/s 732 mmHg 91%

    Depois de amanhã, 20 Fevereiro, Quarta-feira

    Tempo Temperatura Precipitação Vento Pressão Humidade
    00:00 -1°C° 0 mm 5 m/s 731 mmHg 91%
    01:00 -1°C° 0 mm 5 m/s 731 mmHg 91%
    02:00 -1°C° 0 mm 5 m/s 730 mmHg 91%
    03:00 -1°C° 0.3 mm 5 m/s 730 mmHg 91%
    04:00 0°C° 0.3 mm 5 m/s 730 mmHg 92%
    05:00 0°C° 0.3 mm 5 m/s 729 mmHg 92%
    06:00 0°C° 0.1 mm 5 m/s 729 mmHg 92%
    07:00 0°C° 0.1 mm 4 m/s 729 mmHg 92%
    08:00 0°C° 0.1 mm 4 m/s 730 mmHg 92%
    09:00 0°C° 0.1 mm 5 m/s 729 mmHg 90%
    10:00 0°C° 0.1 mm 5 m/s 729 mmHg 88%
    11:00 0°C° 0.1 mm 5 m/s 729 mmHg 85%
    12:00 0°C° 0.1 mm 5 m/s 729 mmHg 85%
    13:00 0°C° 0.1 mm 5 m/s 729 mmHg 85%
    14:00 0°C° 0.1 mm 5 m/s 728 mmHg 84%
    15:00 0°C° 0.4 mm 5 m/s 728 mmHg 85%
    16:00 0°C° 0.4 mm 5 m/s 728 mmHg 85%
    17:00 0°C° 0.4 mm 5 m/s 728 mmHg 85%
    18:00 -1°C° 0.3 mm 5 m/s 728 mmHg 81%
    19:00 -2°C° 0.3 mm 5 m/s 728 mmHg 76%
    20:00 -4°C° 0.3 mm 6 m/s 728 mmHg 72%
    21:00 -4°C° 0 mm 5 m/s 728 mmHg 75%
    22:00 -5°C° 0 mm 5 m/s 728 mmHg 78%
    23:00 -6°C° 0 mm 5 m/s 728 mmHg 80%

    21 Fevereiro, Quinta-feira

    Tempo Temperatura Precipitação Vento Pressão Humidade
    00:00 -6°C° 0.3 mm 6 m/s 729 mmHg 81%
    01:00 -6°C° 0.3 mm 6 m/s 729 mmHg 82%
    02:00 -6°C° 0.3 mm 6 m/s 729 mmHg 83%
    03:00 -6°C° 0.2 mm 6 m/s 730 mmHg 82%
    04:00 -6°C° 0.2 mm 6 m/s 730 mmHg 80%
    05:00 -6°C° 0.2 mm 6 m/s 730 mmHg 79%
    06:00 -6°C° 0.1 mm 6 m/s 731 mmHg 77%
    07:00 -8°C° 0.1 mm 7 m/s 731 mmHg 75%
    08:00 -8°C° 0.1 mm 7 m/s 732 mmHg 73%
    09:00 -8°C° 0.1 mm 7 m/s 733 mmHg 73%
    10:00 -9°C° 0.1 mm 7 m/s 733 mmHg 73%
    11:00 -9°C° 0.1 mm 7 m/s 734 mmHg 73%
    12:00 -9°C° 0.1 mm 7 m/s 735 mmHg 72%
    13:00 -9°C° 0.1 mm 7 m/s 736 mmHg 70%
    14:00 -8°C° 0.1 mm 7 m/s 736 mmHg 69%
    15:00 -9°C° 0.1 mm 7 m/s 737 mmHg 70%
    16:00 -9°C° 0.1 mm 6 m/s 738 mmHg 71%
    17:00 -10°C° 0.1 mm 6 m/s 739 mmHg 73%
    18:00 -10°C° 0 mm 6 m/s 740 mmHg 73%
    19:00 -11°C° 0 mm 6 m/s 741 mmHg 72%
    20:00 -11°C° 0 mm 5 m/s 742 mmHg 72%
    21:00 -12°C° 0 mm 5 m/s 743 mmHg 73%
    22:00 -12°C° 0 mm 5 m/s 743 mmHg 73%
    23:00 -12°C° 0 mm 5 m/s 744 mmHg 73%

    22 Fevereiro, Sexta-feira

    Tempo Temperatura Precipitação Vento Pressão Humidade
    00:00 -13°C° 0 mm 5 m/s 745 mmHg 73%
    01:00 -13°C° 0 mm 5 m/s 746 mmHg 74%
    02:00 -13°C° 0 mm 5 m/s 746 mmHg 74%
    03:00 -14°C° 0 mm 4 m/s 747 mmHg 75%
    04:00 -14°C° 0 mm 4 m/s 748 mmHg 75%
    05:00 -14°C° 0 mm 4 m/s 748 mmHg 75%
    06:00 -14°C° 0 mm 4 m/s 749 mmHg 75%
    07:00 -14°C° 0 mm 4 m/s 750 mmHg 76%
    08:00 -14°C° 0 mm 4 m/s 750 mmHg 76%
    09:00 -13°C° 0 mm 5 m/s 751 mmHg 73%
    10:00 -12°C° 0 mm 5 m/s 752 mmHg 69%
    11:00 -11°C° 0 mm 5 m/s 752 mmHg 66%
    12:00 -11°C° 0 mm 5 m/s 752 mmHg 65%
    13:00 -10°C° 0 mm 5 m/s 753 mmHg 64%
    14:00 -10°C° 0 mm 5 m/s 753 mmHg 62%
    15:00 -11°C° 0 mm 5 m/s 753 mmHg 66%
    16:00 -10°C° 0 mm 4 m/s 754 mmHg 69%
    17:00 -11°C° 0 mm 4 m/s 754 mmHg 73%
    18:00 -11°C° 0 mm 4 m/s 755 mmHg 75%
    19:00 -11°C° 0 mm 4 m/s 755 mmHg 77%
    20:00 -11°C° 0 mm 4 m/s 756 mmHg 80%
    21:00 -12°C° 0 mm 3 m/s 756 mmHg 82%
    22:00 -12°C° 0 mm 3 m/s 756 mmHg 84%
    23:00 -10°C° 0 mm 2 m/s 756 mmHg 87%

    23 Fevereiro, Sábado

    Tempo Temperatura Precipitação Vento Pressão Humidade
    00:00 -12°C° 0 mm 2 m/s 756 mmHg 88%
    01:00 -10°C° 0 mm 1 m/s 756 mmHg 89%
    02:00 -10°C° 0 mm 1 m/s 756 mmHg 89%
    03:00 -10°C° 0 mm 1 m/s 756 mmHg 87%
    04:00 -9°C° 0 mm 1 m/s 756 mmHg 84%
    05:00 -9°C° 0 mm 1 m/s 755 mmHg 81%
    06:00 -9°C° 0 mm 2 m/s 755 mmHg 76%
    07:00 -9°C° 0 mm 2 m/s 755 mmHg 71%
    08:00 -9°C° 0 mm 3 m/s 754 mmHg 66%
    09:00 -10°C° 0.1 mm 4 m/s 754 mmHg 69%
    10:00 -9°C° 0.1 mm 4 m/s 753 mmHg 73%
    11:00 -10°C° 0.1 mm 5 m/s 753 mmHg 76%
    12:00 -9°C° 0.3 mm 4 m/s 752 mmHg 80%
    13:00 -8°C° 0.3 mm 4 m/s 751 mmHg 84%
    14:00 -8°C° 0.3 mm 4 m/s 751 mmHg 88%
    15:00 -8°C° 0.3 mm 4 m/s 750 mmHg 88%
    16:00 -8°C° 0.3 mm 4 m/s 750 mmHg 89%
    17:00 -8°C° 0.3 mm 4 m/s 750 mmHg 89%
    18:00 -7°C° 0.1 mm 3 m/s 750 mmHg 90%
    19:00 -6°C° 0.1 mm 3 m/s 750 mmHg 91%
    20:00 -6°C° 0.1 mm 3 m/s 749 mmHg 92%
    21:00 -6°C° 0 mm 3 m/s 749 mmHg 92%
    22:00 -6°C° 0 mm 3 m/s 749 mmHg 92%
    23:00 -5°C° 0 mm 3 m/s 748 mmHg 93%
    Mostrar mais